ONEWEB-0396 (50476 NORAD) Tracking and Keplerian Element Data

This shows tracking and keplerian element data for the satellite.

Feedback or suggestion? Click here.




ElementValue
Catalog50476
NameONEWEB-0396
Epoch Orbit130
Epoch Day140.58334491
Epoch Year2022
RAAN305.3489
Inclination87.2248
Eccentricity0.0005596
Argument of Perigee91.5896
Mean Anonmoly14.6739
Mean Motion14.92472014
Decay Rate-0.00055591
L11 50476U 21132H 22140.58334491 -.00055591 00000+0 -54738-2 0 9992
L22 50476 87.2248 305.3489 0005596 91.5896 14.6739 14.92472014 1308

Live tracking and technical data element details for ONEWEB-0396 (NORAD 50476). ONEWEB-0396 can be tracked NOW for your location showing map with azimuth and elevation plus other details from your city location.

Track the satellite on the map from your city or location and see movement details for azimuth, elevation, latitude, longitude, range, height, and movement on the map or in text.







IsCatalogInMostPopularTable: catalog: 50476, numindb: 20
Update: records affected: 1



GetName: 50476 ONEWEB-0396

Hit Count: updated at: Mon, 23 May 2022 21:21:39 GMT